Time,TemperatureF,DewpointF,PressureIn,WindDirection,WindDirectionDegrees,WindSpeedMPH,WindSpeedGustMPH,Humidity,HourlyPrecipIn,Conditions,Clouds,dailyrainin,SoftwareType,DateUTC
2013-05-08 00:02:00,47.0,46.0,29.91,East,101,0.0,0.0,96,0.00,,,0.01,,2013-05-08 04:02:00,
2013-05-08 00:13:00,47.0,46.0,29.91,East,101,0.0,0.0,96,0.00,,,0.01,,2013-05-08 04:13:00,
2013-05-08 00:23:00,47.0,46.0,29.91,East,101,0.0,1.0,96,0.00,,,0.01,,2013-05-08 04:23:00,
2013-05-08 00:33:00,47.0,46.0,29.91,East,101,0.0,1.0,96,0.00,,,0.01,,2013-05-08 04:33:00,
2013-05-08 00:43:00,47.0,46.0,29.91,East,101,0.0,1.0,96,0.00,,,0.01,,2013-05-08 04:43:00,
2013-05-08 00:52:00,47.0,46.0,29.90,East,101,0.0,0.0,96,0.00,,,0.01,,2013-05-08 04:52:00,
2013-05-08 01:02:00,47.0,46.0,29.90,East,101,0.0,1.0,96,0.00,,,0.01,,2013-05-08 05:02:00,
2013-05-08 01:12:00,47.0,46.0,29.90,East,101,0.0,1.0,96,0.00,,,0.01,,2013-05-08 05:12:00,
2013-05-08 01:22:00,46.0,45.0,29.90,East,101,0.0,0.0,96,0.00,,,0.01,,2013-05-08 05:22:00,
2013-05-08 01:32:00,46.0,45.0,29.90,East,101,0.0,1.0,97,0.00,,,0.01,,2013-05-08 05:32:00,
2013-05-08 01:42:00,46.0,45.0,29.90,East,101,0.0,1.0,97,0.00,,,0.01,,2013-05-08 05:42:00,
2013-05-08 01:52:00,46.0,45.0,29.90,East,101,0.0,0.0,97,0.00,,,0.01,,2013-05-08 05:52:00,
2013-05-08 02:02:00,46.0,45.0,29.91,East,101,0.0,1.0,97,0.00,,,0.01,,2013-05-08 06:02:00,
2013-05-08 02:12:00,46.0,45.0,29.91,East,101,0.0,1.0,97,0.00,,,0.01,,2013-05-08 06:12:00,
2013-05-08 02:21:00,47.0,46.0,29.91,East,101,0.0,0.0,97,0.00,,,0.01,,2013-05-08 06:21:00,
2013-05-08 02:32:00,47.0,46.0,29.90,East,101,0.0,0.0,97,0.00,,,0.01,,2013-05-08 06:32:00,
2013-05-08 02:42:00,47.0,46.0,29.90,East,101,0.0,0.0,97,0.00,,,0.01,,2013-05-08 06:42:00,
2013-05-08 02:52:00,47.0,46.0,29.90,East,101,0.0,0.0,98,0.00,,,0.01,,2013-05-08 06:52:00,
2013-05-08 03:02:00,47.0,46.0,29.90,East,101,0.0,2.0,98,0.00,,,0.01,,2013-05-08 07:02:00,
2013-05-08 03:11:00,47.0,46.0,29.90,East,101,0.0,2.0,98,0.00,,,0.01,,2013-05-08 07:11:00,
2013-05-08 03:22:00,47.0,46.0,29.90,East,101,0.0,1.0,98,0.00,,,0.01,,2013-05-08 07:22:00,
2013-05-08 03:32:00,47.0,46.0,29.89,East,101,0.0,0.0,98,0.00,,,0.01,,2013-05-08 07:32:00,
2013-05-08 03:42:00,47.0,46.0,29.89,East,101,0.0,0.0,98,0.00,,,0.01,,2013-05-08 07:42:00,
2013-05-08 03:52:00,47.0,46.0,29.89,East,101,0.0,1.0,98,0.00,,,0.01,,2013-05-08 07:52:00,
2013-05-08 04:02:00,47.0,46.0,29.90,East,101,0.0,1.0,98,0.00,,,0.01,,2013-05-08 08:02:00,
2013-05-08 04:12:00,47.0,46.0,29.90,East,101,0.0,1.0,98,0.00,,,0.01,,2013-05-08 08:12:00,
2013-05-08 04:22:00,47.0,46.0,29.90,East,101,0.0,1.0,98,0.00,,,0.01,,2013-05-08 08:22:00,
2013-05-08 04:32:00,47.0,46.0,29.89,East,101,0.0,0.0,98,0.00,,,0.01,,2013-05-08 08:32:00,
2013-05-08 04:42:00,47.0,46.0,29.89,East,101,0.0,0.0,98,0.00,,,0.01,,2013-05-08 08:42:00,
2013-05-08 04:52:00,47.0,46.0,29.89,East,101,0.0,0.0,98,0.00,,,0.01,,2013-05-08 08:52:00,
2013-05-08 05:02:00,47.0,46.0,29.90,East,101,0.0,1.0,98,0.00,,,0.01,,2013-05-08 09:02:00,
2013-05-08 05:11:00,47.0,46.0,29.90,East,101,0.0,1.0,98,0.00,,,0.01,,2013-05-08 09:11:00,
2013-05-08 05:21:00,47.0,46.0,29.91,East,101,0.0,0.0,98,0.00,,,0.01,,2013-05-08 09:21:00,
2013-05-08 05:32:00,47.0,46.0,29.91,East,101,0.0,1.0,98,0.00,,,0.01,,2013-05-08 09:32:00,
2013-05-08 05:42:00,47.0,46.0,29.91,East,101,0.0,1.0,98,0.00,,,0.01,,2013-05-08 09:42:00,
2013-05-08 05:52:00,47.0,46.0,29.91,East,101,0.0,0.0,98,0.00,,,0.01,,2013-05-08 09:52:00,
2013-05-08 06:02:00,47.0,46.0,29.91,East,101,0.0,0.0,98,0.00,,,0.01,,2013-05-08 10:02:00,
2013-05-08 06:12:00,47.0,46.0,29.91,East,101,0.0,0.0,98,0.00,,,0.01,,2013-05-08 10:12:00,
2013-05-08 06:22:00,47.0,46.0,29.91,East,101,0.0,0.0,98,0.00,,,0.01,,2013-05-08 10:22:00,
2013-05-08 06:33:00,47.0,46.0,29.91,East,101,0.0,0.0,98,0.00,,,0.01,,2013-05-08 10:33:00,
2013-05-08 06:42:00,47.0,46.0,29.91,East,101,0.0,0.0,98,0.00,,,0.01,,2013-05-08 10:42:00,
2013-05-08 06:52:00,48.0,47.0,29.91,East,101,0.0,1.0,98,0.00,,,0.01,,2013-05-08 10:52:00,
2013-05-08 07:02:00,47.0,46.0,29.92,East,101,0.0,3.0,98,0.00,,,0.01,,2013-05-08 11:02:00,
2013-05-08 07:11:00,47.0,46.0,29.92,East,101,0.0,3.0,98,0.00,,,0.01,,2013-05-08 11:11:00,
2013-05-08 07:22:00,47.0,46.0,29.92,East,101,0.0,3.0,98,0.00,,,0.01,,2013-05-08 11:22:00,
2013-05-08 07:32:00,47.0,46.0,29.93,East,101,0.0,2.0,98,0.00,,,0.01,,2013-05-08 11:32:00,
2013-05-08 07:42:00,47.0,46.0,29.93,East,101,0.0,2.0,98,0.00,,,0.01,,2013-05-08 11:42:00,
2013-05-08 07:52:00,47.0,46.0,29.93,East,101,0.0,1.0,98,0.00,,,0.01,,2013-05-08 11:52:00,
2013-05-08 08:01:00,48.0,47.0,29.94,East,101,0.0,1.0,98,0.00,,,0.01,,2013-05-08 12:01:00,
2013-05-08 08:11:00,48.0,47.0,29.94,East,101,0.0,1.0,98,0.00,,,0.01,,2013-05-08 12:11:00,
2013-05-08 08:21:00,48.0,47.0,29.94,East,101,0.0,1.0,98,0.00,,,0.01,,2013-05-08 12:21:00,
2013-05-08 08:32:00,48.0,47.0,29.94,East,101,1.0,5.0,98,0.00,,,0.01,,2013-05-08 12:32:00,
2013-05-08 08:42:00,48.0,47.0,29.94,East,101,1.0,5.0,98,0.00,,,0.01,,2013-05-08 12:42:00,
2013-05-08 08:52:00,48.0,47.0,29.95,East,101,1.0,5.0,98,0.00,,,0.01,,2013-05-08 12:52:00,
2013-05-08 09:01:00,48.0,47.0,29.95,ESE,103,0.0,3.0,98,0.00,,,0.01,,2013-05-08 13:01:00,
2013-05-08 09:11:00,48.0,47.0,29.95,ESE,103,0.0,3.0,98,0.00,,,0.01,,2013-05-08 13:11:00,
2013-05-08 09:21:00,48.0,47.0,29.96,ESE,103,0.0,1.0,98,0.00,,,0.01,,2013-05-08 13:21:00,
2013-05-08 09:32:00,48.0,47.0,29.96,ESE,103,0.0,3.0,98,0.00,,,0.01,,2013-05-08 13:32:00,
2013-05-08 09:42:00,48.0,47.0,29.96,ESE,103,0.0,3.0,98,0.00,,,0.01,,2013-05-08 13:42:00,
2013-05-08 09:52:00,48.0,47.0,29.96,East,80,0.0,4.0,98,0.00,,,0.01,,2013-05-08 13:52:00,
2013-05-08 10:02:00,48.0,47.0,29.96,SE,126,0.0,5.0,98,0.00,,,0.01,,2013-05-08 14:02:00,
2013-05-08 10:11:00,48.0,47.0,29.96,SE,126,0.0,5.0,98,0.00,,,0.01,,2013-05-08 14:11:00,
2013-05-08 10:22:00,48.0,48.0,29.96,ENE,74,1.0,3.0,99,0.00,,,0.01,,2013-05-08 14:22:00,
2013-05-08 10:32:00,49.0,49.0,29.96,ESE,113,0.0,3.0,99,0.00,,,0.01,,2013-05-08 14:32:00,
2013-05-08 10:42:00,49.0,49.0,29.96,ESE,113,0.0,3.0,99,0.00,,,0.01,,2013-05-08 14:42:00,
2013-05-08 10:52:00,49.0,48.0,29.96,ESE,115,1.0,4.0,98,0.00,,,0.01,,2013-05-08 14:52:00,
2013-05-08 11:02:00,49.0,48.0,29.96,SE,132,0.0,5.0,98,0.00,,,0.01,,2013-05-08 15:02:00,
2013-05-08 11:11:00,49.0,48.0,29.96,SE,132,0.0,5.0,98,0.00,,,0.01,,2013-05-08 15:11:00,
2013-05-08 11:22:00,49.0,48.0,29.96,ESE,107,0.0,3.0,98,0.00,,,0.01,,2013-05-08 15:22:00,
2013-05-08 11:33:00,49.0,48.0,29.96,ENE,75,4.0,8.0,98,0.00,,,0.01,,2013-05-08 15:33:00,
2013-05-08 11:42:00,49.0,48.0,29.96,ENE,75,4.0,8.0,98,0.00,,,0.01,,2013-05-08 15:42:00,
2013-05-08 11:53:00,49.0,48.0,29.96,SE,132,0.0,3.0,98,0.00,,,0.01,,2013-05-08 15:53:00,
2013-05-08 12:03:00,49.0,48.0,29.95,ESE,121,1.0,5.0,98,0.00,,,0.01,,2013-05-08 16:03:00,
2013-05-08 12:12:00,49.0,48.0,29.95,ESE,121,1.0,5.0,98,0.00,,,0.01,,2013-05-08 16:12:00,
2013-05-08 12:23:00,49.0,48.0,29.96,East,83,0.0,3.0,98,0.00,,,0.01,,2013-05-08 16:23:00,
2013-05-08 12:33:00,49.0,48.0,29.95,ENE,63,3.0,6.0,98,0.00,,,0.01,,2013-05-08 16:33:00,
2013-05-08 12:42:00,49.0,48.0,29.95,ENE,63,3.0,6.0,98,0.00,,,0.01,,2013-05-08 16:42:00,
2013-05-08 12:52:00,49.0,48.0,29.94,NE,43,2.0,6.0,98,0.00,,,0.01,,2013-05-08 16:52:00,
2013-05-08 13:02:00,49.0,48.0,29.94,ENE,70,1.0,5.0,98,0.00,,,0.01,,2013-05-08 17:02:00,
2013-05-08 13:12:00,49.0,48.0,29.94,ENE,70,1.0,5.0,98,0.00,,,0.01,,2013-05-08 17:12:00,
2013-05-08 13:22:00,49.0,48.0,29.94,ENE,74,1.0,5.0,98,0.00,,,0.01,,2013-05-08 17:22:00,
2013-05-08 13:32:00,49.0,48.0,29.94,ENE,74,1.0,5.0,98,0.00,,,0.01,,2013-05-08 17:32:00,
2013-05-08 13:41:00,49.0,48.0,29.94,ENE,74,1.0,5.0,98,0.00,,,0.01,,2013-05-08 17:41:00,
2013-05-08 13:52:00,50.0,49.0,29.94,East,87,2.0,6.0,98,0.00,,,0.01,,2013-05-08 17:52:00,
2013-05-08 14:02:00,50.0,49.0,29.94,ENE,68,3.0,9.0,98,0.00,,,0.01,,2013-05-08 18:02:00,
2013-05-08 14:12:00,50.0,49.0,29.94,ENE,68,3.0,9.0,98,0.00,,,0.01,,2013-05-08 18:12:00,
2013-05-08 14:22:00,50.0,49.0,29.94,ENE,78,4.0,8.0,98,0.00,,,0.01,,2013-05-08 18:22:00,
2013-05-08 14:32:00,50.0,49.0,29.95,East,87,3.0,8.0,97,0.00,,,0.01,,2013-05-08 18:32:00,
2013-05-08 14:42:00,50.0,49.0,29.95,East,87,3.0,8.0,97,0.00,,,0.01,,2013-05-08 18:42:00,
2013-05-08 14:52:00,50.0,49.0,29.95,East,87,3.0,8.0,97,0.00,,,0.01,,2013-05-08 18:52:00,
2013-05-08 15:01:00,51.0,50.0,29.95,NE,51,2.0,6.0,97,0.00,,,0.01,,2013-05-08 19:01:00,
2013-05-08 15:11:00,51.0,50.0,29.95,NE,51,2.0,6.0,97,0.00,,,0.01,,2013-05-08 19:11:00,
2013-05-08 15:22:00,52.0,51.0,29.94,ENE,63,1.0,7.0,97,0.00,,,0.01,,2013-05-08 19:22:00,
2013-05-08 15:32:00,53.0,52.0,29.94,SSE,167,0.0,6.0,96,0.00,,,0.01,,2013-05-08 19:32:00,
2013-05-08 15:42:00,53.0,52.0,29.94,SSE,167,0.0,6.0,96,0.00,,,0.01,,2013-05-08 19:42:00,
2013-05-08 15:52:00,53.0,52.0,29.94,SSE,167,0.0,6.0,96,0.00,,,0.01,,2013-05-08 19:52:00,
2013-05-08 16:02:00,53.0,50.0,29.94,ENE,65,2.0,5.0,91,0.00,,,0.01,,2013-05-08 20:02:00,
2013-05-08 16:11:00,53.0,50.0,29.94,ENE,65,2.0,5.0,91,0.00,,,0.01,,2013-05-08 20:11:00,
2013-05-08 16:22:00,53.0,51.0,29.94,ENE,65,0.0,3.0,92,0.00,,,0.01,,2013-05-08 20:22:00,
2013-05-08 16:32:00,54.0,51.0,29.95,ENE,65,0.0,3.0,91,0.00,,,0.01,,2013-05-08 20:32:00,
2013-05-08 16:42:00,54.0,51.0,29.95,ENE,65,0.0,3.0,91,0.00,,,0.01,,2013-05-08 20:42:00,
2013-05-08 16:52:00,54.0,51.0,29.95,ENE,65,0.0,3.0,91,0.00,,,0.01,,2013-05-08 20:52:00,
2013-05-08 17:01:00,56.0,51.0,29.95,NW,304,2.0,5.0,84,0.00,,,0.01,,2013-05-08 21:01:00,
2013-05-08 17:12:00,56.0,52.0,29.95,NNW,329,0.0,4.0,85,0.00,,,0.00,,2013-05-08 21:12:00,
2013-05-08 17:21:00,56.0,52.0,29.95,NNW,329,0.0,4.0,85,0.00,,,0.00,,2013-05-08 21:21:00,
2013-05-08 17:33:00,56.0,52.0,29.95,West,265,2.0,4.0,87,0.00,,,0.00,,2013-05-08 21:33:00,
2013-05-08 17:43:00,56.0,52.0,29.95,West,265,2.0,4.0,87,0.00,,,0.00,,2013-05-08 21:43:00,
2013-05-08 17:53:00,56.0,52.0,29.95,West,265,2.0,4.0,87,0.00,,,0.00,,2013-05-08 21:53:00,
2013-05-08 18:03:00,57.0,52.0,29.94,WNW,291,1.0,4.0,83,0.00,,,0.00,,2013-05-08 22:03:00,
2013-05-08 18:12:00,57.0,52.0,29.94,WNW,291,1.0,4.0,83,0.00,,,0.00,,2013-05-08 22:12:00,
2013-05-08 18:22:00,57.0,52.0,29.94,West,270,1.0,4.0,83,0.00,,,0.00,,2013-05-08 22:22:00,
2013-05-08 18:33:00,57.0,53.0,29.94,West,277,0.0,2.0,85,0.00,,,0.00,,2013-05-08 22:33:00,
2013-05-08 18:42:00,57.0,53.0,29.94,West,277,0.0,2.0,85,0.00,,,0.00,,2013-05-08 22:42:00,
2013-05-08 18:53:00,57.0,53.0,29.94,West,277,0.0,2.0,85,0.00,,,0.00,,2013-05-08 22:53:00,
2013-05-08 19:01:00,58.0,53.0,29.94,West,268,1.0,6.0,84,0.00,,,0.00,,2013-05-08 23:01:00,
2013-05-08 19:12:00,58.0,53.0,29.95,SW,215,1.0,4.0,84,0.00,,,0.00,,2013-05-08 23:12:00,
2013-05-08 19:22:00,58.0,53.0,29.95,SW,215,1.0,4.0,84,0.00,,,0.00,,2013-05-08 23:22:00,
2013-05-08 19:32:00,58.0,53.0,29.95,WSW,247,2.0,6.0,84,0.00,,,0.00,,2013-05-08 23:32:00,
2013-05-08 19:42:00,57.0,53.0,29.95,WSW,258,2.0,5.0,86,0.00,,,0.00,,2013-05-08 23:42:00,
2013-05-08 19:52:00,57.0,53.0,29.95,WSW,258,2.0,5.0,86,0.00,,,0.00,,2013-05-08 23:52:00,
2013-05-08 20:02:00,57.0,53.0,29.96,WSW,247,1.0,3.0,85,0.00,,,0.00,,2013-05-09 00:02:00,
2013-05-08 20:12:00,57.0,53.0,29.96,WSW,247,1.0,3.0,85,0.00,,,0.00,,2013-05-09 00:12:00,
2013-05-08 20:21:00,56.0,52.0,29.96,WSW,247,0.0,3.0,86,0.00,,,0.00,,2013-05-09 00:21:00,
2013-05-08 20:32:00,56.0,52.0,29.96,WSW,247,0.0,3.0,86,0.00,,,0.00,,2013-05-09 00:32:00,
2013-05-08 20:42:00,56.0,52.0,29.97,WSW,247,0.0,3.0,87,0.00,,,0.00,,2013-05-09 00:42:00,
2013-05-08 20:52:00,56.0,52.0,29.97,WSW,247,0.0,3.0,87,0.00,,,0.00,,2013-05-09 00:52:00,
2013-05-08 21:01:00,55.0,52.0,29.97,WSW,247,0.0,2.0,89,0.00,,,0.00,,2013-05-09 01:01:00,
2013-05-08 21:12:00,55.0,52.0,29.97,WSW,247,0.0,2.0,89,0.00,,,0.00,,2013-05-09 01:12:00,
2013-05-08 21:22:00,54.0,51.0,29.97,WSW,247,0.0,1.0,89,0.00,,,0.00,,2013-05-09 01:22:00,
2013-05-08 21:32:00,53.0,50.0,29.98,WSW,247,0.0,0.0,90,0.00,,,0.00,,2013-05-09 01:32:00,
2013-05-08 21:42:00,53.0,51.0,29.98,WSW,247,0.0,1.0,92,0.00,,,0.00,,2013-05-09 01:42:00,
2013-05-08 21:52:00,53.0,51.0,29.98,WSW,247,0.0,1.0,92,0.00,,,0.00,,2013-05-09 01:52:00,
2013-05-08 22:02:00,52.0,50.0,29.98,WSW,247,0.0,0.0,92,0.00,,,0.00,,2013-05-09 02:02:00,
2013-05-08 22:12:00,52.0,50.0,29.98,WSW,247,0.0,0.0,92,0.00,,,0.00,,2013-05-09 02:12:00,
2013-05-08 22:22:00,51.0,49.0,29.99,WSW,247,0.0,0.0,93,0.00,,,0.00,,2013-05-09 02:22:00,
2013-05-08 22:33:00,51.0,49.0,29.99,WSW,247,0.0,0.0,93,0.00,,,0.00,,2013-05-09 02:33:00,
2013-05-08 22:42:00,51.0,49.0,29.99,WSW,247,0.0,0.0,93,0.00,,,0.00,,2013-05-09 02:42:00,
2013-05-08 22:52:00,51.0,49.0,29.99,WSW,247,0.0,0.0,93,0.00,,,0.00,,2013-05-09 02:52:00,
2013-05-08 23:02:00,50.0,49.0,30.01,WSW,247,0.0,0.0,95,0.00,,,0.00,,2013-05-09 03:02:00,
2013-05-08 23:11:00,50.0,49.0,30.01,WSW,247,0.0,0.0,95,0.00,,,0.00,,2013-05-09 03:11:00,
2013-05-08 23:21:00,50.0,49.0,30.01,WSW,247,0.0,0.0,95,0.00,,,0.00,,2013-05-09 03:21:00,
2013-05-08 23:33:00,50.0,49.0,30.01,WSW,247,0.0,0.0,96,0.00,,,0.00,,2013-05-09 03:33:00,
2013-05-08 23:43:00,50.0,49.0,30.01,WSW,247,0.0,0.0,96,0.00,,,0.00,,2013-05-09 03:43:00,
2013-05-08 23:53:00,50.0,49.0,30.00,WSW,247,0.0,0.0,96,0.00,,,0.00,,2013-05-09 03:53:00,